When you browse on this site, cookies collect data to enhance your experience and personalize the content and advertising you see.
Visit our Privacy Policy to learn more. By continuing to use the site, you agree to this use of cookies and data.
  • In Latvia
  • List of Countries
  • For 7 days
  • Water Temperature
  • Weather Map
  • Weather Widgets
  • user-avatar
    Login

    Hourly Weather Memphis

    Today, 14 December, Saturday

    Time Temperature Precipitation Wind Pressure Humidity
    00:00 +6°C° 0 mm 1 mps 750 mmHg 91%
    01:00 +6°C° 0 mm 1 mps 750 mmHg 90%
    02:00 +6°C° 0 mm 1 mps 749 mmHg 89%
    03:00 +6°C° 0 mm 1 mps 749 mmHg 88%
    04:00 +6°C° 0 mm 1 mps 749 mmHg 89%
    05:00 +6°C° 0 mm 1 mps 749 mmHg 90%
    06:00 +5°C° 0 mm 2 mps 749 mmHg 90%
    07:00 +6°C° 0 mm 2 mps 750 mmHg 88%
    08:00 +7°C° 0 mm 3 mps 750 mmHg 87%
    09:00 +8°C° 0 mm 3 mps 750 mmHg 85%
    10:00 +8°C° 0 mm 4 mps 750 mmHg 82%
    11:00 +10°C° 0 mm 4 mps 750 mmHg 80%
    12:00 +11°C° 0 mm 4 mps 750 mmHg 77%
    13:00 +11°C° 0 mm 4 mps 750 mmHg 74%
    14:00 +12°C° 0 mm 4 mps 750 mmHg 71%
    15:00 +12°C° 0 mm 4 mps 750 mmHg 68%
    16:00 +10°C° 0 mm 3 mps 751 mmHg 72%
    17:00 +9°C° 0 mm 2 mps 751 mmHg 77%
    18:00 +9°C° 0 mm 1 mps 752 mmHg 82%
    19:00 +9°C° 0 mm 1 mps 752 mmHg 82%
    20:00 +8°C° 0 mm 1 mps 753 mmHg 82%
    21:00 +8°C° 0 mm 1 mps 753 mmHg 82%
    22:00 +8°C° 0 mm 1 mps 753 mmHg 83%
    23:00 +8°C° 0 mm 1 mps 754 mmHg 84%

    Tomorrow, 15 December, Sunday

    Time Temperature Precipitation Wind Pressure Humidity
    00:00 +8°C° 0 mm 1 mps 754 mmHg 84%
    01:00 +6°C° 0 mm 2 mps 754 mmHg 86%
    02:00 +6°C° 0 mm 2 mps 754 mmHg 89%
    03:00 +5°C° 0 mm 2 mps 754 mmHg 91%
    04:00 +5°C° 0 mm 2 mps 754 mmHg 91%
    05:00 +4°C° 0 mm 3 mps 754 mmHg 91%
    06:00 +3°C° 0 mm 3 mps 755 mmHg 91%
    07:00 +4°C° 0 mm 3 mps 755 mmHg 87%
    08:00 +5°C° 0 mm 3 mps 755 mmHg 84%
    09:00 +6°C° 0 mm 4 mps 755 mmHg 80%
    10:00 +8°C° 0 mm 4 mps 755 mmHg 77%
    11:00 +11°C° 0 mm 4 mps 754 mmHg 74%
    12:00 +13°C° 0 mm 4 mps 754 mmHg 70%
    13:00 +12°C° 0 mm 4 mps 753 mmHg 76%
    14:00 +12°C° 0 mm 4 mps 752 mmHg 81%
    15:00 +11°C° 0 mm 3 mps 752 mmHg 86%
    16:00 +12°C° 0.2 mm 3 mps 752 mmHg 89%
    17:00 +12°C° 0.2 mm 3 mps 752 mmHg 92%
    18:00 +12°C° 0.2 mm 3 mps 751 mmHg 95%
    19:00 +13°C° 0.3 mm 3 mps 751 mmHg 95%
    20:00 +14°C° 0.3 mm 3 mps 751 mmHg 95%
    21:00 +16°C° 0.3 mm 3 mps 751 mmHg 94%
    22:00 +15°C° 0.6 mm 4 mps 751 mmHg 93%
    23:00 +17°C° 0.6 mm 4 mps 751 mmHg 93%

    Day after tomorrow, 16 December, Monday

    Time Temperature Precipitation Wind Pressure Humidity
    00:00 +16°C° 0.6 mm 5 mps 751 mmHg 92%
    01:00 +17°C° 0.9 mm 4 mps 751 mmHg 93%
    02:00 +17°C° 0.9 mm 3 mps 751 mmHg 95%
    03:00 +17°C° 0.9 mm 3 mps 751 mmHg 96%
    04:00 +17°C° 1 mm 3 mps 751 mmHg 96%
    05:00 +17°C° 1 mm 3 mps 751 mmHg 96%
    06:00 +17°C° 1 mm 2 mps 751 mmHg 96%
    07:00 +17°C° 0.8 mm 3 mps 751 mmHg 95%
    08:00 +17°C° 0.8 mm 3 mps 751 mmHg 95%
    09:00 +18°C° 0.8 mm 3 mps 751 mmHg 95%
    10:00 +18°C° 1.2 mm 3 mps 751 mmHg 93%
    11:00 +18°C° 1.2 mm 3 mps 750 mmHg 92%
    12:00 +18°C° 1.2 mm 3 mps 749 mmHg 91%
    13:00 +17°C° 2.2 mm 3 mps 749 mmHg 91%
    14:00 +16°C° 2.2 mm 3 mps 748 mmHg 91%
    15:00 +14°C° 2.2 mm 4 mps 748 mmHg 91%
    16:00 +13°C° 0.7 mm 4 mps 748 mmHg 91%
    17:00 +11°C° 0.7 mm 4 mps 749 mmHg 91%
    18:00 +9°C° 0.7 mm 5 mps 750 mmHg 90%
    19:00 +8°C° 0 mm 5 mps 750 mmHg 89%
    20:00 +7°C° 0 mm 6 mps 751 mmHg 88%
    21:00 +5°C° 0 mm 6 mps 752 mmHg 86%
    22:00 +4°C° 0 mm 6 mps 753 mmHg 84%
    23:00 +3°C° 0 mm 6 mps 754 mmHg 82%

    17 December, Tuesday

    Time Temperature Precipitation Wind Pressure Humidity
    00:00 +2°C° 0 mm 6 mps 755 mmHg 80%
    01:00 +1°C° 0 mm 6 mps 756 mmHg 79%
    02:00 +1°C° 0 mm 6 mps 757 mmHg 79%
    03:00 -1°C° 0 mm 6 mps 757 mmHg 78%
    04:00 -1°C° 0 mm 6 mps 758 mmHg 78%
    05:00 -1°C° 0 mm 6 mps 758 mmHg 79%
    06:00 -2°C° 0 mm 6 mps 759 mmHg 79%
    07:00 -1°C° 0 mm 5 mps 760 mmHg 79%
    08:00 -1°C° 0 mm 5 mps 760 mmHg 78%
    09:00 -1°C° 0 mm 5 mps 761 mmHg 78%
    10:00 0°C° 0 mm 5 mps 761 mmHg 74%
    11:00 +1°C° 0 mm 4 mps 761 mmHg 70%
    12:00 +3°C° 0 mm 4 mps 761 mmHg 66%
    13:00 +4°C° 0 mm 4 mps 761 mmHg 64%
    14:00 +4°C° 0 mm 4 mps 761 mmHg 62%
    15:00 +4°C° 0 mm 4 mps 761 mmHg 60%
    16:00 +3°C° 0 mm 3 mps 761 mmHg 63%
    17:00 +3°C° 0 mm 3 mps 761 mmHg 66%
    18:00 +3°C° 0 mm 2 mps 761 mmHg 68%
    19:00 +3°C° 0 mm 2 mps 762 mmHg 68%
    20:00 +2°C° 0 mm 2 mps 762 mmHg 68%
    21:00 +3°C° 0 mm 1 mps 762 mmHg 68%
    22:00 +2°C° 0 mm 2 mps 762 mmHg 70%
    23:00 +1°C° 0 mm 2 mps 762 mmHg 71%

    18 December, Wednesday

    Time Temperature Precipitation Wind Pressure Humidity
    00:00 +1°C° 0 mm 2 mps 763 mmHg 72%
    01:00 +1°C° 0 mm 2 mps 763 mmHg 73%
    02:00 +1°C° 0 mm 2 mps 763 mmHg 74%
    03:00 +1°C° 0 mm 2 mps 763 mmHg 75%
    04:00 -1°C° 0 mm 2 mps 763 mmHg 77%
    05:00 -1°C° 0 mm 2 mps 763 mmHg 79%
    06:00 -1°C° 0 mm 2 mps 763 mmHg 81%
    07:00 -1°C° 0 mm 2 mps 764 mmHg 78%
    08:00 +1°C° 0 mm 2 mps 764 mmHg 74%
    09:00 +2°C° 0 mm 2 mps 765 mmHg 70%
    10:00 +4°C° 0 mm 2 mps 765 mmHg 64%
    11:00 +5°C° 0 mm 2 mps 765 mmHg 57%
    12:00 +6°C° 0 mm 2 mps 764 mmHg 50%
    13:00 +7°C° 0 mm 2 mps 764 mmHg 48%
    14:00 +7°C° 0 mm 2 mps 764 mmHg 47%
    15:00 +8°C° 0 mm 2 mps 763 mmHg 46%
    16:00 +7°C° 0 mm 1 mps 763 mmHg 51%
    17:00 +6°C° 0 mm 1 mps 763 mmHg 55%
    18:00 +5°C° 0 mm 1 mps 763 mmHg 60%
    19:00 +5°C° 0 mm 1 mps 763 mmHg 61%
    20:00 +5°C° 0 mm 1 mps 764 mmHg 63%
    21:00 +4°C° 0 mm 1 mps 764 mmHg 64%
    22:00 +3°C° 0 mm 2 mps 764 mmHg 66%
    23:00 +3°C° 0 mm 2 mps 763 mmHg 67%

    19 December, Thursday

    Time Temperature Precipitation Wind Pressure Humidity
    00:00 +2°C° 0 mm 2 mps 763 mmHg 69%
    01:00 +2°C° 0 mm 2 mps 763 mmHg 70%
    02:00 +2°C° 0 mm 2 mps 763 mmHg 71%
    03:00 +2°C° 0 mm 2 mps 763 mmHg 72%
    04:00 +2°C° 0 mm 2 mps 763 mmHg 73%
    05:00 0°C° 0 mm 3 mps 763 mmHg 74%
    06:00 0°C° 0 mm 3 mps 763 mmHg 75%
    07:00 +1°C° 0 mm 3 mps 763 mmHg 73%
    08:00 +2°C° 0 mm 3 mps 764 mmHg 70%
    09:00 +3°C° 0 mm 3 mps 764 mmHg 67%
    10:00 +4°C° 0 mm 3 mps 764 mmHg 64%
    11:00 +5°C° 0 mm 4 mps 763 mmHg 60%
    12:00 +7°C° 0 mm 4 mps 763 mmHg 57%
    13:00 +7°C° 0 mm 4 mps 763 mmHg 56%
    14:00 +8°C° 0 mm 3 mps 762 mmHg 56%
    15:00 +8°C° 0 mm 3 mps 762 mmHg 56%
    16:00 +8°C° 0 mm 3 mps 761 mmHg 59%
    17:00 +7°C° 0 mm 3 mps 761 mmHg 63%
    18:00 +5°C° 0 mm 3 mps 761 mmHg 66%
    19:00 +4°C° 0 mm 3 mps 761 mmHg 67%
    20:00 +4°C° 0 mm 3 mps 761 mmHg 68%
    21:00 +4°C° 0 mm 3 mps 761 mmHg 68%
    22:00 +4°C° 0 mm 3 mps 761 mmHg 69%
    23:00 +4°C° 0 mm 3 mps 761 mmHg 71%
    Show more